Location: Church Tower
(37.7144°N, 119.6316°W)
Time: 20:37:46
(UTC+00:00)

Cosmos 1072 Rocket - Pass Details

Date: 15 November 2025
Orbit: 947 x 1008 km, 82.9° (Epoch: 08 December)

Event Time Altitude Azimuth Distance (km) Brightness Sun altitude
Rises 13:54:52 0° 349° (N) 3,630 7.2 -9.1°
Reaches altitude 10° 13:57:22 10° 347° (NNW) 2,685 6.5 -8.6°
Maximum altitude 14:03:25 64° 267° (W) 1,058 4.5 -7.4°
Drops below altitude 10° 14:09:30 10° 187° (S) 2,702 7.0 -6.3°
Sets 14:12:02 0° 185° (S) 3,654 7.7 -5.8°
